Погода в Бонтанге

Индонезия     0°12′43″N   117°21′18″E
темп.,
°C
ветер,
м/с
пор.,
м/с
влажн.,
%
обл.,
%
осадки,
мм/ч
давл.,
гПа
погр.,
м
2 марта, вт
вт223:00+25в1183100 0.0 101224
02:00+24всв1189100 0.0 101024
05:00+23ссв1193100 0.1 100925
08:00+26с138298 0.1 1011231
11:00+32ссв126167 0.4 10121054
14:00+32св225665 2.9 10081215
17:00+29в257688 0.3 1007611
20:00+25в269287 0.3 1009211
3 марта, ср
ср323:00+25св2990100 0.0 1011385
02:00+24св289492 0.0 1009297
05:00+23ссв299455 0.0 1009366
08:00+26ссв268476 0.0 1011467
11:00+29ссв1380100 4.3 1011770
14:00+28в1282100 8.9 1008463
17:00+28ссв248244 1.3 1007480
20:00+24ссв129462 2.3 101051
4 марта, чт
чт423:00+23св1298100 3.2 101266
02:00+23зсз1297100 4.6 101151
05:00+21з1498100 0.8 1011124
08:00+22зсз1296100 0.8 1013102
11:00+24з1293100 0.1 1013180
14:00+30св2362100 0.7 10101318
17:00+26всв1580100 0.3 1009253
20:00+24всв1388100 0.3 1010102
5 марта, пт
пт523:00+23св159465 0.0 1011164
02:00+22св129738 0.0 101077
05:00+21ссв129618 0.0 101027
08:00+25ссв148121 0.0 1012277
11:00+31ссв24538 0.0 10121319
14:00+34св234415 0.0 10082036
17:00+27в378538 1.2 1007375
20:00+23всв149543 2.3 101080
6 марта, сб
сб623:00+23св269495 0.0 1011150
02:00+22св149687 0.0 1010121
05:00+21ссв139897 0.0 1009102
08:00+24ссв258998 0.0 1011282
11:00+31с355210 0.0 10111270
14:00+34ссв254549 0.0 10081962
17:00+27всв398644 1.6 1008373
20:00+24св2109357 2.2 1010393